Back to catalog

BREEZE-M DEB

AliveHEO
NORAD 38602·DEBRIS·🇷🇺 Russia

Launched Mar 14, 2008 from Baikonur Cosmodrome

Loading…

Next Passes (next 24 hours)

TLE

FreshSource: Space-Track

Epoch: Sep 13, 2026, 20:43 UTC

1 38602U 08011AZ  26256.86366513  .00002279  00000-0  30511-2 0  9990
2 38602  48.7538  62.1153 6428028 163.9503 234.2636  3.32676455185237

Track BREEZE-M DEB in real time with AllMySat

Download on the App Store